Location: �perlecques
(50.8057°N, 2.1521°E)
Time: 07:04:27
(UTC+00:00)

STARS - Pass Details

Date: 07 April 2023
Orbit: 616 x 630 km, 98.1° (Epoch: 03 June)

Event Time Altitude Azimuth Distance (km) Brightness Sun altitude
Rises 22:30:47 0° 22° (NNE) 2,922 ? -29.5°
Reaches altitude 10° 22:33:11 10° 33° (NNE) 2,012 ? -29.6°
Enters shadow 22:34:29 17° 44° (NE) 1,577 ? -29.7°
